[Iaude] MPEC S36: 2016 SD

mpec at si.edu mpec at si.edu
Thu Sep 29 16:07:48 EDT 2016


M.P.E.C. 2016-S36                                Issued 2016 Sept. 24, 18:39 UT
 
     The Minor Planet Electronic Circulars contain information on unusual
         minor planets and routine data on comets.  They are published
    on behalf of Division F of the International Astronomical Union by the
          Minor Planet Center, Smithsonian Astrophysical Observatory,
                          Cambridge, MA 02138, U.S.A.

             Prepared using the Tamkin Foundation Computer Network

                              MPC at CFA.HARVARD.EDU
            URL http://www.minorplanetcenter.net/    ISSN 1523-6714


                                    2016 SD
 
Observations:
     K16S00D  C2016 07 30.49911 23 53 11.13 +08 34 03.5          21.9 RtES036F51
     K16S00D  C2016 07 30.51015 23 53 11.25 +08 34 09.4          22.3 RtES036F51
     K16S00D  C2016 08 13.46082 23 53 59.605+10 21 54.78         21.2 iLES036F51
     K16S00D  C2016 08 13.47277 23 53 59.476+10 21 59.88         21.2 iLES036F51
     K16S00D  C2016 08 26.50799 23 48 51.607+11 46 14.96         20.2 rLES036F51
     K16S00D  C2016 08 26.52091 23 48 51.040+11 46 19.17         20.3 rLES036F51
     K16S00D* C2016 09 22.20587 23 15 02.15 +12 50 27.8          19.0 VqES036703
     K16S00D  C2016 09 22.21791 23 15 00.75 +12 50 27.0          19.1 VqES036703
     K16S00D  C2016 09 22.22392 23 15 00.08 +12 50 25.9          18.7 VqES036703
     K16S00D  C2016 09 22.30106 23 14 51.11 +12 50 18.2          18.6 VqES036703
     K16S00D  C2016 09 22.30768 23 14 50.27 +12 50 16.4          18.7 VqES036703
     K16S00D  C2016 09 22.31432 23 14 49.54 +12 50 16.5          19.0 VqES036703
     K16S00D  C2016 09 22.32095 23 14 48.79 +12 50 16.6          19.3 VqES036703
     K16S00D  C2016 09 22.40435 23 14 39.01 +12 50 06.3          18.4 VqES036703
     K16S00D  C2016 09 22.41100 23 14 38.34 +12 50 05.2          18.9 VqES036703
     K16S00D  C2016 09 22.41764 23 14 37.56 +12 50 04.9          19.3 VqES036703
     K16S00D  C2016 09 22.42428 23 14 36.74 +12 50 04.6          19.5 VqES036703
     K16S00D  C2016 09 22.56645 23 14 21.91 +12 49 48.4          18.3 RqES036D29
     K16S00D  C2016 09 22.57541 23 14 20.86 +12 49 48.0          18.7 RqES036D29
     K16S00D  C2016 09 22.58867 23 14 19.32 +12 49 46.6          19.2 RqES036D29
     K16S00D  C2016 09 22.58955 23 14 19.19 +12 49 46.5          19.0 RqES036D29
     K16S00D  C2016 09 22.61755 23 14 15.88 +12 49 43.1          18.3 RqES036D29
     K16S00D  C2016 09 22.61843 23 14 15.75 +12 49 43.7          19.3 RqES036D29
     K16S00D KC2016 09 22.81101 23 13 54.60 +12 49 16.7                qES036J95
     K16S00D KC2016 09 22.81578 23 13 54.03 +12 49 16.1                qES036J95
     K16S00D KC2016 09 22.82057 23 13 53.49 +12 49 15.5          18.9 RqES036J95
     K16S00D KC2016 09 22.82069 23 13 53.32 +12 49 17.1          18.4 RoES036461
     K16S00D KC2016 09 22.82394 23 13 52.93 +12 49 16.9          18.3 RoES036461
     K16S00D KC2016 09 22.82718 23 13 52.56 +12 49 16.3          18.3 RoES036461
     K16S00D KC2016 09 22.85476 23 13 49.34 +12 49 13.2          18.6 V ES036L04
     K16S00D KC2016 09 22.86221 23 13 48.43 +12 49 12.4          18.7 V ES036L04
     K16S00D KC2016 09 22.96910 23 13 36.20 +12 48 58.4          19.2 VqES036Z99
     K16S00D KC2016 09 22.97331 23 13 35.70 +12 48 57.6          19.2 VqES036Z99
     K16S00D KC2016 09 22.97751 23 13 35.23 +12 48 57.5          19.2 VqES036Z99
     K16S00D  C2016 09 23.11014 23 13 20.98 +12 48 45.0          18.3 RoES036926
     K16S00D  C2016 09 23.12111 23 13 19.69 +12 48 44.1          18.2 RoES036926
     K16S00D  C2016 09 23.13679 23 13 17.88 +12 48 42.0          18.2 RoES036926
     K16S00D KC2016 09 23.17101 23 13 13.52 +12 48 37.5          19.0 RqES036850
     K16S00D KC2016 09 23.19262 23 13 10.96 +12 48 34.9          18.8 RqES036850
     K16S00D KC2016 09 23.21545 23 13 08.26 +12 48 31.8          19.0 RqES036850
     K16S00D KC2016 09 23.23755 23 13 05.65 +12 48 29.1          18.9 RqES036850
     K16S00D KC2016 09 23.51137 23 12 34.81 +12 48 10.0          19.1 VqES036E23
     K16S00D KC2016 09 23.51955 23 12 33.86 +12 48 08.9          19.2 VqES036E23
     K16S00D KC2016 09 23.52732 23 12 32.92 +12 48 08.1          19.2 VqES036E23
     K16S00D KC2016 09 23.87585 23 11 53.33 +12 47 02.0          19.4 VqES036958
     K16S00D KC2016 09 23.88469 23 11 52.21 +12 46 59.9          19.2 VqES036958
     K16S00D KC2016 09 23.89359 23 11 51.15 +12 46 59.2          19.3 VqES036958
     K16S00D KC2016 09 24.10155 23 11 27.69 +12 46 31.4          18.6 RoES036291
     K16S00D KC2016 09 24.10385 23 11 27.41 +12 46 30.9          18.6 RoES036291
     K16S00D KC2016 09 24.10615 23 11 27.12 +12 46 30.8          18.7 RoES036291
 
Observer details:
291 LPL/Spacewatch II.  Observer T. H. Bressi.  1.8-m f/2.7 reflector + CCD.
461 University of Szeged, Piszkesteto Stn. (Konkoly).  Observer K. Sarneczky.
    0.60-m Schmidt + CCD.
703 Catalina Sky Survey.  Observer G. J. Leonard.  Measurers E. J. Christensen,
    D. C. Fuls, A. R. Gibbs, A. D. Grauer, J. A. Johnson, R. A. Kowalski,
    S. M. Larson, G. J. Leonard, R. G. Matheny, R. L. Seaman, F. C. Shelly.
    0.68-m Schmidt + CCD.
850 Cordell-Lorenz Observatory, Sewanee.  Observer D. T. Durig.  0.3-m f/9.4
    Schmidt-Cassegrain + CCD.
926 Tenagra II Observatory.  Observers M. Schwartz, P. R. Holvorcem.  Measurer
    M. Schwartz.  0.81-m f/7 Ritchey-Chretien + CCD.
958 Observatoire de Dax.  Observers P. Dupouy, J. B. de Vanssay.  Measurer
    P. Dupouy.  0.43-m f/2.7 reflector + CCD.
D29 Purple Mountain Observatory, XuYi Station.  Observers H. B. Zhao, B. Li,
    G. Zhaori, R. Q. Hong, L. F. Hu.  Measurers H. B. Zhao, B. Li. H. Lu,
    G. Zhaori, H. J. Tan.  1.04-m f/1.8 Schmidt + CCD.
E23 Arcadia.  Observer A. Hidas.  0.35-m f/1.9 reflector + CCD.
F51 Pan-STARRS 1, Haleakala.  Observers B. Gibson, T. Goggia, N. Primak,
    A. Schultz, M. Willman.  Measurers K. Chambers, S. Chastel, L. Denneau,
    H. Flewelling, M. Huber, E. Lilly, E. Magnier, R. Wainscoat, C. Waters,
    R. Weryk, P. Veres.  1.8-m Ritchey-Chretien + CCD.
J95 Great Shefford.  Observer P. Birtwhistle.  0.40-m f/6.0 Schmidt-Cassegrain
    + CCD.
L04 ROASTERR-1 Observatory, Cluj-Napoca.  Observer L. Hudin.  0.3-m f/5.0
    reflector + CCD.
Z99 Clixby Observatory, Cleethorpes.  Observer A. Mickleburgh.  0.36-m f/8
    Schmidt-Cassegrain + CCD.
 
Orbital elements:
2016 SD                                                  Earth MOID = 0.0698 AU
Epoch 2016 July 31.0 TT = JDT 2457600.5                 MPC
M 329.17559              (2000.0)            P               Q
n   0.20441935     Peri.  176.77467     -0.08183956     -0.99079024
a   2.8540049      Node   277.90059     +0.91194971     -0.03078052
e   0.6970619      Incl.    6.25240     +0.40205721     -0.13186072
P   4.82           H   18.5           G   0.15           U   4
Residuals in seconds of arc
160730 F51  0.2+  0.3-    160922 D29  0.2+  0.8-    160923 926  0.1-  0.2+
160730 F51  0.1-  0.2+    160922 D29  0.2+  0.3-    160923 926  0.3-  0.5+
160813 F51  0.2-  0.1+    160922 D29  0.4+  0.3-    160923 926  0.1-  0.1+
160813 F51  0.0   0.0     160922 D29  0.0   0.3-    160923 850  0.1-  0.1-
160826 F51  0.1+  0.0     160922 D29  0.4-  0.6-    160923 850  0.0   0.0
160826 F51  0.0   0.1-    160922 D29  0.8-  0.1+    160923 850  0.1+  0.3-
160922 703  0.3-  0.0     160922 J95  0.3+  0.1+    160923 850  0.2+  0.1-
160922 703  0.3-  0.4+    160922 J95  0.0   0.0     160923 E23  0.1+  0.1+
160922 703  0.1+  0.1-    160922 J95  0.1+  0.1-    160923 E23  0.5+  0.1+
160922 703  0.4+  0.1+    160922 461  0.0   0.3+    160923 E23  0.3+  0.3+
160922 703  0.5-  1.0-    160922 461  0.2-  0.5+    160923 958  0.6+  0.2+
160922 703  0.1+  0.2-    160922 461  0.1-  0.2+    160923 958  0.4-  0.7-
160922 703  0.4+  0.7+    160922 L04  0.4+  0.1-    160923 958  0.5-  0.2-
160922 703  1.1-  0.0     160922 L04  0.2-  0.0     160924 291  0.2+  0.3+
160922 703  0.3+  0.3-    160922 Z99  0.1-  0.0     160924 291  0.1+  0.1+
160922 703  0.1+  0.2+    160922 Z99  0.2-  0.3-    160924 291  0.2-  0.3+
160922 703  0.7-  0.7+    160922 Z99  0.1+  0.1+

Ephemeris:
2016 SD                  a,e,i = 2.85, 0.70, 6                   q = 0.8646
Date    TT    R. A. (2000) Decl.     Delta      r     Elong.  Phase     V
2016 08 25    23 49 48.0 +11 37 41   0.9394  1.8733   147.7    16.8    20.6
...
2016 09 09    23 35 52.2 +12 43 06   0.7468  1.7302   160.9    11.0    19.7
...
2016 09 17    23 24 09.3 +12 54 31   0.6622  1.6524   164.4     9.4    19.3
...
2016 09 23    23 13 32.8 +12 49 04   0.6074  1.5936   162.7    10.8    19.1
2016 09 24    23 11 38.7 +12 46 52   0.5989  1.5838   162.1    11.2    19.1
2016 09 25    23 09 42.6 +12 44 17   0.5907  1.5739   161.3    11.8    19.1
...
2016 10 01    22 57 31.0 +12 20 38   0.5457  1.5147   155.5    15.9    19.0
...
2016 10 09    22 40 27.7 +11 28 19   0.4961  1.4355   145.5    23.2    18.9
...
2016 10 24    22 10 42.8 +09 03 42   0.4275  1.2881   125.0    39.3    18.8

A. U. Tomatic                (C) Copyright 2016 MPC           M.P.E.C. 2016-S36




More information about the Iaude mailing list